User: anonymous   Login
Location: *
(51.1248°S, 108.4023°W)
Time: 10:49:39
(UTC+00:00)
Language:

Meteor 1-19 Rocket - Orbit

View from above orbital plane
View from above orbital plane
View from above satellite
View from above satellite

Ground track
Ground track

The orbit data is extracted from the following two-line orbital elements,

1 07493U 74083B   21259.44430697 -.00000075  00000-0 -50591-4 0  9999
2 07493  81.1565  82.1965 0083548  53.9733 306.9141 14.07589344406841
Epoch (UTC): 16 September 2021 10:39:48
Eccentricity: 0.0083548
inclination: 81.1565°
perigee height: 807 km
apogee height: 928 km
right ascension of ascending node: 82.1965°
argument of perigee: 53.9733°
revolutions per day: 14.07589344
mean anomaly at epoch: 306.9141°
orbit number at epoch: 40684

The dashed part of the orbit path shows where the satellite is in the earth's shadow,  

DLR